Back to catalog

TIANQI 29

AliveCommunicationsLEO
NORAD 61195·PAYLOAD·🇨🇳 China

Launched Sep 20, 2024 from Xichang Satellite Launch Center

Loading…

Next Passes (next 24 hours)

TLE

FreshSource: Space-Track

Epoch: Sep 14, 2026, 14:26 UTC

1 61195U 24170A   26257.60199194  .00000018  00000-0  10227-3 0  9991
2 61195  44.8562  98.8868 0006180 158.3315 201.7778 13.97725830101370

Track TIANQI 29 in real time with AllMySat

Download on the App Store